Regional Weather Roundup
Issued by NWS

Home | Current Version | Previous Version | Text Only | Print | Product List | Glossary On
Versions: 1 2 3 4 5 6 7 8 9 10 11 12 13 14 15 16 17 18 19 20 21 22 23 24 25 26 27
000
ASUS45 KBOU 221007
RWRCO

WEATHER ROUNDUP FOR COLORADO
NATIONAL WEATHER SERVICE DENVER/BOULDER CO
400 AM MDT SAT APR 22 2017

NOTE: "FAIR" INDICATES FEW OR NO CLOUDS BELOW 12000 FEET WITH NO
SIGNIFICANT WEATHER AND/OR OBSTRUCTIONS TO VISIBILITY.

COZ001>005-013-030-031-221100-
...NORTHWEST COLORADO...

CITY           SKY/WX    TMP DP  RH WIND       PRES   REMARKS
CRAIG          FAIR      33  28  81 NE5       30.24R WCI  29
HAYDEN         FAIR      30  25  80 CALM      30.24R
MEEKER         CLOUDY    31  27  85 SE3       30.24R
MOUNT WERNER   NOT AVBL
STEAMBOAT SPGS CLOUDY    30  29  96 CALM      30.23S
WALDEN           N/A     19  16  86 SE5       30.24R WCI  13
$$

COZ006>008-011-221100-
...WEST CENTRAL VALLEYS...

CITY           SKY/WX    TMP DP  RH WIND       PRES   REMARKS
GRAND JUNCTION FAIR      45  25  45 VRB3      30.16R
MONTROSE       FAIR      32  22  66 S7        30.19R WCI  26
EAGLE          FAIR      27  25  92 CALM      30.25R
RIFLE          MOCLDY    35  31  85 E3        30.21R
DELTA          FAIR      38  22  52 NE5       30.17R
NUCLA          FAIR      32  18  55 E8        30.19S WCI  25
$$

COZ017>023-064>068-221100-
...SOUTHWEST COLORADO...

CITY           SKY/WX    TMP DP  RH WIND       PRES   REMARKS
DURANGO        FAIR      27  13  55 N5        30.12R WCI  22
CORTEZ         FAIR      27  16  63 NE7       30.14S WCI  19
PAGOSA SPRINGS FAIR      28  13  54 CALM      30.15R
TELLURIDE      FAIR      29  17  59 CALM      30.20S
WOLF CREEK PAS FAIR      19  10  68 N3        30.27R
$$

COZ009-010-012-014-032>034-037-058>063-221100-
...CENTRAL COLORADO...

CITY           SKY/WX    TMP DP  RH WIND       PRES   REMARKS
ASPEN          CLOUDY    32  23  69 S5        30.20R WCI  27
BUENA VISTA    FAIR      29  21  70 W9        30.21R WCI  21
COPPER MTN     FLURRIES  19  14  79 MISG      30.23R
BERTHOUD PASS  HAZE      12   1  62 NE5       30.22R VSB 1/4 WCI   4
COTTONWOOD PAS FAIR      30  18  59 SW6       30.22R WCI  24
GUNNISON       FAIR      25  20  81 CALM      30.20R
KREMMLING      FAIR      32  28  86 CALM      30.24R
LEADVILLE      FAIR      16  11  80 NE3       30.21R
MONARCH PASS   CLOUDY    19  18  93 NE8       30.32R WCI   9
SALIDA         CLOUDY    36  31  82 E5        30.29R
SUNLIGHT       MOCLDY    19  18  93 MISG      30.26S
WILKERSON PASS CLOUDY   N/A N/A N/A N5        30.24R
$$

COZ069>075-221100-
...SAN LUIS VALLEY/SANGRE DE CRISTO MOUNTAINS...

CITY           SKY/WX    TMP DP  RH WIND       PRES   REMARKS
ALAMOSA        FAIR      25  21  85 W3        30.16R
LA VETA PASS   FOG       23  21  93 N10G18    30.31S VSB 3/4 WCI  12
SAGUACHE       FAIR      28  16  59 NW8       30.17S WCI  20
$$

COZ035-036-038>040-221100-
...NORTHERN COLORADO FRONT RANGE...

CITY           SKY/WX    TMP DP  RH WIND       PRES   REMARKS
DENVER INTL AP LGT RAIN  36  33  89 SE9       30.23R
DMNS CITY PARK   N/A     38  36  91 NE2G9     30.23S
AURORA         DRIZZLE   35  35  99 E8        30.23R WCI  29
FRONT RANGE AP LGT RAIN  37  36  93 E10G16    30.24R
ERIE MUNI ARPT RAIN      39  37  93 CALM      30.24R
BOULDER MUN AP DRIZZLE   37  37 100 E3        30.23R
CENTENNIAL     CLOUDY    37  34  89 CALM      30.22R
BROOMFIELD     DRIZZLE   37  36  93 E3        30.24R
FORT COLLINS   LGT RAIN  39  37  92 SE8       30.25R
LONGMONT       MIX PCPN  41  38  90 CALM      30.25R
$$

COZ041-046-047-076>085-087-088-221100-
...PIKES PEAK/PALMER DIVIDE AND SOUTHERN FOOTHILLS...

CITY           SKY/WX    TMP DP  RH WIND       PRES   REMARKS
COLO. SPRINGS  CLOUDY    35  34  96 SE6       30.24R WCI  30
A. F. ACADEMY  CLOUDY    35  33  89 S9        30.22R WCI  28
SCHRIEVER AFB    N/A     32  32 100 E9G17     30.24R FOG     WCI  24
ELLICOTT       CLOUDY   N/A N/A N/A S5        30.22R
FALCON         LGT SNOW  32  32  99 E6        30.23R WCI  27
FORT CARSON    CLOUDY    35  34  96 SE6       30.23R WCI  30
LIMON          MIX PCPN  36  34  92 E5        30.24R
MONUMENT HILL  CLOUDY    32  30  93 CALM      30.23R
TRINIDAD       CLOUDY    38  35  89 E7        30.20R
$$

COZ042>045-048>051-090-091-221100-
...NORTHEAST COLORADO...

CITY           SKY/WX    TMP DP  RH WIND       PRES   REMARKS
GREELEY ARPT   LGT RAIN  40  38  93 SE6       30.26R
AKRON          FOG       36  34  92 N6        30.25R VSB 1/4
BURLINGTON     CLOUDY    41  38  89 E3        30.25R
WRAY           NOT AVBL
STERLING       CLOUDY    37  37 100 CALM      30.25R
HOLYOKE        MOCLDY    41  36  81 SE5       30.26R
FORT MORGAN    CLOUDY    38  37  94 CALM      30.26R
$$

COZ086-089-092>099-221100-
...SOUTHEAST COLORADO...

CITY           SKY/WX    TMP DP  RH WIND       PRES   REMARKS
PUEBLO         LGT RAIN  40  37  89 E9        30.23R
LA JUNTA       CLOUDY    42  37  82 E5        30.23R
LAMAR          CLOUDY    42  37  82 NE6       30.22R
SPRINGFIELD      N/A     33  33 100 NW6       30.21R WCI  28
$$




USA.gov is the U.S. government's official web portal to all federal, state and local government web resources and services.